• In Czech Republic
  • List of Countries
  • For 7 days
  • Water Temperature
  • Satellite Maps
  • Weather Map
  • Weather Widgets
  • user-avatar
    Login

    Hourly Weather Zorya

    Today, 18 August, Saturday

    Time Temperature Precipitation Wind Pressure Humidity
    00:00 +26°C° 0 mm 5 mps 750 mmHg 38%
    01:00 +26°C° 0 mm 5 mps 750 mmHg 42%
    02:00 +25°C° 0 mm 5 mps 750 mmHg 45%
    03:00 +25°C° 0 mm 5 mps 750 mmHg 49%
    04:00 +23°C° 0 mm 5 mps 750 mmHg 55%
    05:00 +23°C° 0 mm 5 mps 751 mmHg 61%
    06:00 +22°C° 0 mm 5 mps 751 mmHg 67%
    07:00 +25°C° 0 mm 5 mps 751 mmHg 64%
    08:00 +26°C° 0 mm 5 mps 751 mmHg 60%
    09:00 +27°C° 0 mm 6 mps 751 mmHg 56%
    10:00 +29°C° 0 mm 6 mps 751 mmHg 51%
    11:00 +30°C° 0 mm 6 mps 751 mmHg 45%
    12:00 +32°C° 0 mm 6 mps 751 mmHg 40%
    13:00 +33°C° 0 mm 6 mps 751 mmHg 38%
    14:00 +33°C° 0 mm 6 mps 751 mmHg 37%
    15:00 +33°C° 0 mm 6 mps 751 mmHg 36%
    16:00 +32°C° 0 mm 6 mps 751 mmHg 36%
    17:00 +32°C° 0 mm 6 mps 751 mmHg 36%
    18:00 +30°C° 0 mm 6 mps 751 mmHg 37%
    19:00 +29°C° 0 mm 6 mps 751 mmHg 39%
    20:00 +27°C° 0 mm 6 mps 752 mmHg 42%
    21:00 +24°C° 0 mm 6 mps 752 mmHg 44%
    22:00 +24°C° 0 mm 6 mps 752 mmHg 44%
    23:00 +23°C° 0 mm 6 mps 752 mmHg 45%

    Tomorrow, 19 August, Sunday

    Time Temperature Precipitation Wind Pressure Humidity
    00:00 +22°C° 0 mm 6 mps 753 mmHg 45%
    01:00 +21°C° 0 mm 6 mps 753 mmHg 46%
    02:00 +21°C° 0 mm 6 mps 753 mmHg 46%
    03:00 +20°C° 0 mm 6 mps 753 mmHg 46%
    04:00 +19°C° 0 mm 6 mps 753 mmHg 48%
    05:00 +19°C° 0 mm 6 mps 753 mmHg 49%
    06:00 +17°C° 0 mm 6 mps 753 mmHg 50%
    07:00 +20°C° 0 mm 7 mps 754 mmHg 47%
    08:00 +21°C° 0 mm 7 mps 754 mmHg 44%
    09:00 +23°C° 0 mm 7 mps 754 mmHg 40%
    10:00 +24°C° 0 mm 7 mps 754 mmHg 37%
    11:00 +26°C° 0 mm 7 mps 754 mmHg 34%
    12:00 +27°C° 0 mm 7 mps 754 mmHg 31%
    13:00 +28°C° 0 mm 6 mps 754 mmHg 29%
    14:00 +28°C° 0 mm 6 mps 753 mmHg 27%
    15:00 +29°C° 0 mm 6 mps 753 mmHg 26%
    16:00 +28°C° 0 mm 6 mps 753 mmHg 26%
    17:00 +28°C° 0 mm 6 mps 753 mmHg 27%
    18:00 +27°C° 0 mm 6 mps 753 mmHg 27%
    19:00 +26°C° 0 mm 5 mps 753 mmHg 30%
    20:00 +23°C° 0 mm 5 mps 753 mmHg 33%
    21:00 +21°C° 0 mm 4 mps 754 mmHg 36%
    22:00 +21°C° 0 mm 4 mps 754 mmHg 37%
    23:00 +20°C° 0 mm 5 mps 754 mmHg 39%

    Day after tomorrow, 20 August, Monday

    Time Temperature Precipitation Wind Pressure Humidity
    00:00 +19°C° 0 mm 5 mps 754 mmHg 41%
    01:00 +19°C° 0 mm 5 mps 754 mmHg 43%
    02:00 +17°C° 0 mm 5 mps 754 mmHg 44%
    03:00 +17°C° 0 mm 5 mps 754 mmHg 46%
    04:00 +16°C° 0 mm 5 mps 754 mmHg 47%
    05:00 +16°C° 0 mm 5 mps 754 mmHg 49%
    06:00 +15°C° 0 mm 5 mps 754 mmHg 50%
    07:00 +17°C° 0 mm 5 mps 754 mmHg 47%
    08:00 +20°C° 0 mm 6 mps 754 mmHg 43%
    09:00 +22°C° 0 mm 6 mps 754 mmHg 39%
    10:00 +24°C° 0 mm 6 mps 754 mmHg 36%
    11:00 +26°C° 0 mm 6 mps 754 mmHg 33%
    12:00 +27°C° 0 mm 6 mps 754 mmHg 30%
    13:00 +28°C° 0 mm 6 mps 753 mmHg 29%
    14:00 +28°C° 0 mm 5 mps 753 mmHg 27%
    15:00 +29°C° 0 mm 5 mps 753 mmHg 25%
    16:00 +29°C° 0 mm 5 mps 753 mmHg 26%
    17:00 +29°C° 0 mm 5 mps 752 mmHg 26%
    18:00 +29°C° 0 mm 4 mps 752 mmHg 27%
    19:00 +27°C° 0 mm 4 mps 752 mmHg 29%
    20:00 +25°C° 0 mm 4 mps 753 mmHg 32%
    21:00 +22°C° 0 mm 4 mps 753 mmHg 35%
    22:00 +21°C° 0 mm 4 mps 753 mmHg 36%
    23:00 +21°C° 0 mm 4 mps 753 mmHg 37%

    21 August, Tuesday

    Time Temperature Precipitation Wind Pressure Humidity
    00:00 +20°C° 0 mm 4 mps 753 mmHg 38%
    01:00 +20°C° 0 mm 4 mps 753 mmHg 40%
    02:00 +19°C° 0 mm 4 mps 753 mmHg 41%
    03:00 +19°C° 0 mm 4 mps 753 mmHg 42%
    04:00 +18°C° 0 mm 4 mps 753 mmHg 43%
    05:00 +18°C° 0 mm 4 mps 753 mmHg 44%
    06:00 +18°C° 0 mm 4 mps 753 mmHg 45%
    07:00 +20°C° 0 mm 4 mps 753 mmHg 41%
    08:00 +22°C° 0 mm 4 mps 753 mmHg 37%
    09:00 +26°C° 0 mm 4 mps 753 mmHg 33%
    10:00 +27°C° 0 mm 4 mps 753 mmHg 30%
    11:00 +28°C° 0 mm 4 mps 753 mmHg 27%
    12:00 +30°C° 0 mm 4 mps 753 mmHg 23%
    13:00 +30°C° 0 mm 4 mps 753 mmHg 22%
    14:00 +32°C° 0 mm 4 mps 752 mmHg 21%
    15:00 +32°C° 0 mm 4 mps 752 mmHg 20%
    16:00 +31°C° 0 mm 3 mps 752 mmHg 21%
    17:00 +31°C° 0 mm 3 mps 752 mmHg 22%
    18:00 +31°C° 0 mm 3 mps 752 mmHg 23%
    19:00 +29°C° 0 mm 2 mps 752 mmHg 25%
    20:00 +26°C° 0 mm 2 mps 752 mmHg 28%
    21:00 +24°C° 0 mm 2 mps 752 mmHg 30%
    22:00 +24°C° 0 mm 2 mps 752 mmHg 31%
    23:00 +23°C° 0 mm 2 mps 752 mmHg 32%

    22 August, Wednesday

    Time Temperature Precipitation Wind Pressure Humidity
    00:00 +23°C° 0 mm 2 mps 752 mmHg 33%
    01:00 +21°C° 0 mm 2 mps 752 mmHg 35%
    02:00 +21°C° 0 mm 2 mps 752 mmHg 36%
    03:00 +20°C° 0 mm 2 mps 752 mmHg 38%
    04:00 +20°C° 0 mm 2 mps 752 mmHg 39%
    05:00 +20°C° 0 mm 2 mps 752 mmHg 40%
    06:00 +19°C° 0 mm 2 mps 752 mmHg 42%
    07:00 +23°C° 0 mm 2 mps 753 mmHg 39%
    08:00 +25°C° 0 mm 2 mps 753 mmHg 36%
    09:00 +27°C° 0 mm 2 mps 753 mmHg 33%
    10:00 +29°C° 0 mm 2 mps 753 mmHg 31%
    11:00 +30°C° 0 mm 2 mps 753 mmHg 29%
    12:00 +32°C° 0 mm 2 mps 752 mmHg 26%
    13:00 +32°C° 0 mm 2 mps 752 mmHg 25%
    14:00 +34°C° 0 mm 2 mps 752 mmHg 24%
    15:00 +33°C° 0 mm 1 mps 752 mmHg 23%
    16:00 +33°C° 0 mm 1 mps 752 mmHg 24%
    17:00 +32°C° 0 mm 1 mps 752 mmHg 24%
    18:00 +32°C° 0 mm 1 mps 751 mmHg 25%
    19:00 +30°C° 0 mm 1 mps 752 mmHg 29%
    20:00 +28°C° 0 mm 1 mps 752 mmHg 33%
    21:00 +25°C° 0 mm 1 mps 752 mmHg 37%
    22:00 +25°C° 0 mm 2 mps 752 mmHg 38%
    23:00 +24°C° 0 mm 2 mps 752 mmHg 39%

    23 August, Thursday

    Time Temperature Precipitation Wind Pressure Humidity
    00:00 +24°C° 0 mm 2 mps 752 mmHg 40%
    01:00 +24°C° 0 mm 2 mps 752 mmHg 41%
    02:00 +23°C° 0 mm 2 mps 751 mmHg 42%
    03:00 +23°C° 0 mm 2 mps 751 mmHg 43%
    04:00 +23°C° 0 mm 2 mps 751 mmHg 43%
    05:00 +21°C° 0 mm 2 mps 751 mmHg 44%
    06:00 +21°C° 0 mm 2 mps 751 mmHg 44%
    07:00 +24°C° 0 mm 2 mps 751 mmHg 40%
    08:00 +27°C° 0 mm 2 mps 751 mmHg 35%
    09:00 +29°C° 0 mm 2 mps 751 mmHg 31%
    10:00 +31°C° 0 mm 2 mps 751 mmHg 28%
    11:00 +32°C° 0 mm 2 mps 751 mmHg 26%
    12:00 +34°C° 0 mm 2 mps 751 mmHg 23%
    13:00 +35°C° 0 mm 2 mps 750 mmHg 22%
    14:00 +35°C° 0 mm 2 mps 750 mmHg 22%
    15:00 +35°C° 0 mm 2 mps 750 mmHg 21%
    16:00 +35°C° 0 mm 2 mps 749 mmHg 22%
    17:00 +35°C° 0 mm 2 mps 749 mmHg 23%
    18:00 +34°C° 0 mm 2 mps 749 mmHg 24%
    19:00 +31°C° 0 mm 2 mps 749 mmHg 27%
    20:00 +29°C° 0 mm 2 mps 749 mmHg 30%
    21:00 +27°C° 0 mm 2 mps 749 mmHg 33%
    22:00 +27°C° 0 mm 2 mps 749 mmHg 37%
    23:00 +26°C° 0 mm 3 mps 749 mmHg 42%
    Show more